Weather History for Roanoke, VA

Change the Weather History Date:

Sunday, December 28, 2014

  Actual Average Record
Temperature  
Mean Temperature 52 °F 37 °F  
Max Temperature 58 °F 46 °F 75 °F (1984)
Min Temperature 46 °F 28 °F 4 °F (1925)
Degree Days  
Heating Degree Days 13 28  
Month to date heating degree days 612 722  
Since 1 July heating degree days 1490 1526  
Cooling Degree Days 0 0  
Month to date cooling degree days 0 0  
Year to date cooling degree days 1128 1208  
Growing Degree Days 2 (Base 50)    
Moisture  
Dew Point 40 °F    
Average Humidity 63    
Maximum Humidity 83    
Minimum Humidity 43    
Precipitation  
Precipitation T in 0.09 in 3.28 in (1958)
Month to date precipitation 2.22 2.69  
Year to date precipitation 39.11 41.00  
Snow  
Snow 0.00 in - - ()
Month to date snowfall T  
Since 1 July snowfall 0.5  
Snow Depth 0.00 in    
Sea Level Pressure  
Sea Level Pressure 30.03 in    
Wind  
Wind Speed 6 mph (WSW)    
Max Wind Speed 13 mph    
Max Gust Speed 17 mph    
Visibility 10 miles    
Events Rain    
T = Trace of Precipitation, MM = Missing Value Source: NWS Daily Summary

Daily Weather History Graph

Daily Weather History Graph

Search for Another Location

Airport:

Trip Planner

Search our weather history database for the weather conditions in past years. The results will help you decide how hot, cold, wet, or windy it might be!

Date:

Astronomy

Dec. 28, 2014 Rise Set
Actual Time 7:33 AM EST 5:09 PM EST
Civil Twilight 7:03 AM EST 5:39 PM EST
Nautical Twilight 6:31 AM EST 6:11 PM EST
Astronomical Twilight 5:59 AM EST 6:43 PM EST
Moon 12:03 PM EST No Moon Set
Length of Visible Light 10h 35m
Length of Day
9h 36m
Waxing Crescent, 49% of the Moon is Illuminated
Dec 28
Waxing Crescent
Dec 28
First Quarter
Jan 4
Full
Jan 13
Last Quarter
Jan 20
New

Hourly Weather History & Observations

Time (EST) Temp. Dew Point Humidity Pressure Visibility Wind Dir Wind Speed Gust Speed Precip Events Conditions
12:54 AM 50.0 °F 35.1 °F 57% 30.08 in 10.0 mi Calm Calm - N/A   Mostly Cloudy
1:54 AM 48.9 °F 35.1 °F 59% 30.06 in 10.0 mi SE 3.5 mph - N/A   Mostly Cloudy
2:54 AM 50.0 °F 34.0 °F 54% 30.04 in 10.0 mi SSW 4.6 mph - N/A   Partly Cloudy
3:54 AM 50.0 °F 33.1 °F 52% 30.01 in 10.0 mi Calm Calm - N/A   Scattered Clouds
4:54 AM 50.0 °F 33.1 °F 52% 30.01 in 10.0 mi WSW 8.1 mph - N/A   Mostly Cloudy
5:54 AM 52.0 °F 32.0 °F 47% 30.00 in 10.0 mi West 6.9 mph - N/A   Overcast
6:54 AM 51.1 °F 32.0 °F 48% 30.00 in 10.0 mi WSW 3.5 mph - N/A   Mostly Cloudy
7:54 AM 53.1 °F 32.0 °F 45% 30.02 in 10.0 mi WSW 3.5 mph - N/A   Overcast
8:54 AM 53.1 °F 34.0 °F 48% 30.01 in 10.0 mi ENE 3.5 mph - N/A   Overcast
9:54 AM 55.9 °F 34.0 °F 44% 30.03 in 10.0 mi WNW 3.5 mph - N/A   Mostly Cloudy
10:54 AM 57.0 °F 37.9 °F 49% 30.02 in 10.0 mi West 6.9 mph - N/A   Overcast
11:54 AM 57.9 °F 44.1 °F 60% 30.01 in 10.0 mi WSW 8.1 mph - 0.00 in Rain Light Rain
12:54 PM 55.9 °F 46.0 °F 69% 29.99 in 10.0 mi WSW 8.1 mph - 0.00 in Rain Light Rain
1:54 PM 55.0 °F 46.9 °F 74% 30.00 in 10.0 mi WSW 9.2 mph - 0.00 in Rain Light Rain
2:54 PM 54.0 °F 48.0 °F 80% 30.01 in 10.0 mi WSW 6.9 mph - 0.00 in   Overcast
3:54 PM 53.1 °F 48.0 °F 83% 30.02 in 10.0 mi South 3.5 mph - 0.00 in   Overcast
4:54 PM 53.1 °F 46.9 °F 80% 30.02 in 10.0 mi SW 5.8 mph - N/A   Mostly Cloudy
5:54 PM 52.0 °F 46.0 °F 80% 30.05 in 10.0 mi West 8.1 mph - N/A   Mostly Cloudy
6:54 PM 51.1 °F 45.0 °F 80% 30.04 in 10.0 mi West 9.2 mph - N/A   Scattered Clouds
7:54 PM 52.0 °F 45.0 °F 77% 30.06 in 10.0 mi West 11.5 mph - N/A   Overcast
8:54 PM 53.1 °F 44.1 °F 71% 30.07 in 10.0 mi Calm Calm - N/A   Overcast
9:54 PM 51.1 °F 45.0 °F 80% 30.08 in 10.0 mi SW 4.6 mph - N/A   Mostly Cloudy
10:54 PM 51.1 °F 45.0 °F 80% 30.09 in 10.0 mi West 5.8 mph - N/A   Overcast
11:54 PM 51.1 °F 45.0 °F 80% 30.08 in 10.0 mi West 6.9 mph - N/A   Overcast